Regional Weather Roundup
Issued by NWS

Home | Current Version | Previous Version | Text Only | Print | Product List | Glossary On
Versions: 1 2 3 4 5 6 7 8 9 10 11 12 13 14 15 16 17 18 19 20 21 22 23 24 25 26 27 28 29 30 31 32 33 34 35 36 37 38 39 40 41 42 43 44 45 46 47 48 49 50
846
ASUS43 KIND 271609
RWRIN

WEATHER ROUNDUP FOR INDIANA
NATIONAL WEATHER SERVICE INDIANAPOLIS IN
1200 PM EDT MON JUN 27 2016

NOTE: "FAIR" INDICATES FEW OR NO CLOUDS BELOW 12,000 FEET WITH NO
SIGNIFICANT WEATHER AND/OR OBSTRUCTIONS TO VISIBILITY.

* - STATION DOES NOT REPORT WEATHER SUCH AS PRECIPITATION OR FOG.

+ - STATION NOT QUALITY CONTROLLED BY THE NATIONAL WEATHER SERVICE.
    USE DATA WITH CAUTION...ESPECIALLY DEWPOINT AND RELATIVE
    HUMIDITY OBSERVATIONS.

INZ001>003-010>013-019-020-271700-
NORTHWEST INDIANA

CITY           SKY/WX    TMP DP  RH WIND       PRES   REMARKS
GARY /AIRPORT/ MOSUNNY   88  70  55 W22       30.04S
KNOX *+        SUNNY     82  59  44 W9        30.05S
LA PORTE +     SUNNY     88  64  44 W9G16     30.05S
MICHIGAN CITY+ SUNNY     86  61  42 W10       30.05R
MONTICELLO +   CLOUDY    83  64  52 W9        30.07S
RENSSELAER +   SUNNY     82  72  69 SW8       30.08R
VALPARAISO     SUNNY     89  60  37 W15       30.06R

$$

LMZ046-743>745-271700-
SOUTHERN LAKE MICHIGAN

STATION/POSITION TIME  TEMP    WIND        PRES    WAVE
                       AIR SEA DIR/SP/G            HT
                 (UTC) (F)     (DEG/KT/KT) (MB)    (FT)
BURNS HARBOR     1500   78     260/ 11/ 13 1017.3S
MICHIGAN CITY    1500   74     220/  7/  8   N/A
5NW MICH CITY    1600   75 72  260/  6/  8   N/A     1

$$

INZ004-005-014>016-021>024-271700-
NORTH CENTRAL INDIANA

CITY           SKY/WX    TMP DP  RH WIND       PRES   REMARKS
GOSHEN         SUNNY     84  66  54 W12       30.04S
LOGANSPORT +   SUNNY     82  68  61 W8        30.09R
PERU/GRISSOM   SUNNY     83  71  66 W12       30.07R
ROCHESTER +    SUNNY     86  68  54 W7        30.07S
SOUTH BEND     SUNNY     85  61  44 W15       30.04S
WARSAW +       SUNNY     82  66  57 SW9       30.05S

$$

INZ006>009-017-018-025>027-271700-
NORTHEAST INDIANA

CITY           SKY/WX    TMP DP  RH WIND       PRES   REMARKS
ANGOLA *+        N/A     84  68  58 W7        30.03S
AUBURN +       SUNNY     84  64  51 SW7       30.05S
FORT WAYNE     MOSUNNY   85  69  58 W10       30.06S
HUNTINGTON +   SUNNY    N/A N/A N/A W5        30.06F

$$

INZ028-029-035-036-043>045-051>053-271700-
WEST CENTRAL INDIANA

CITY           SKY/WX    TMP DP  RH WIND       PRES   REMARKS
CRAWFORDSVL +  SUNNY     82  69  64 W3        30.11S
GREENCASTLE +  SUNNY     82  70  65 NW3       30.12S
LAFAYETTE      SUNNY     83  69  62 W9        30.09R
TERRE HAUTE    SUNNY     85  67  54 NE3       30.11S

$$

INZ030>032-037>040-046>048-054>057-064-065-271700-
CENTRAL INDIANA

CITY           SKY/WX    TMP DP  RH WIND       PRES   REMARKS
CP ATTERBURY + PTSUNNY   82  68  61 N3        30.12R
COLUMBUS       MOSUNNY   81  72  74 NW5       30.11F
FISHERS *+     SUNNY    N/A N/A N/A NW5       30.10F
FRANKFORT +      N/A     85  70  60 W9        30.12R
GREENWOOD *+   SUNNY     84  66  54 N7        30.11S
INDIANAPOLIS   MOSUNNY   85  66  53 W7        30.10S
-EAGLE CREEK   SUNNY     86  65  49 VRB3      30.10R
KOKOMO *+      SUNNY     84  66  54 NW13      30.08S
MARION +       SUNNY     82  69  63 W8        30.09S
MT COMFORT *+  SUNNY     84  68  58 NW8       30.11S
SHELBYVILLE    CLOUDY    86  69  56 N5        30.10S
ZIONSVILLE +   SUNNY     83  68  60 W5        30.11S

$$

INZ033-034-041-042-049-050-058-059-271700-
EAST CENTRAL INDIANA

CITY           SKY/WX    TMP DP  RH WIND       PRES   REMARKS
MUNCIE         SUNNY     86  66  51 NW8       30.09S

$$

INZ060-061-067>069-081>083-085>088-271700-
SOUTHWEST INDIANA

CITY           SKY/WX    TMP DP  RH WIND       PRES   REMARKS
EVANSVILLE     TSTM      75  72  90 NE6       30.10F
HUNTINGBURG *+ CLOUDY    79  72  78 NW5       30.11F
WASHINGTON +   CLOUDY    79  76  90 CALM      30.11F

$$

INZ062-063-066-070>080-084-089>092-271700-
SOUTH CENTRAL AND SOUTHEAST INDIANA

CITY           SKY/WX    TMP DP  RH WIND       PRES   REMARKS
BLOOMINGTON    CLOUDY    84  69  60 VRB6      30.12S
MADISON *+     CLOUDY    81  70  69 CALM      30.13R
NORTH VERNON + CLOUDY    82  73  74 CALM      30.12R
SEYMOUR +      CLOUDY    82  68  61 N5        30.10S

$$





USA.gov is the U.S. government's official web portal to all federal, state and local government web resources and services.